Regional Weather Roundup
Issued by NWS Charleston, SC

Current Version | Previous Version | Graphics & Text | Print | Product List | Glossary On
Versions: 1 2 3 4 5 6 7 8 9 10 11 12 13 14 15 16 17 18 19 20 21 22 23 24 25 26 27 28 29 30 31 32 33 34 35 36 37 38 39 40 41 42 43 44 45 46 47 48 49 50
000
ASUS42 KCHS 180426
RWRCHS

REGIONAL WEATHER ROUNDUP
NATIONAL WEATHER SERVICE CHARLESTON SC
1200 AM EDT SAT APR 18 2015

NOTE: "FAIR" INDICATES FEW OR NO CLOUDS BELOW 12,000 FEET WITH NO
SIGNIFICANT WEATHER AND/OR OBSTRUCTIONS TO VISIBILITY.

NOT ALL STATIONS ARE QUALITY CONTROLLED BY THE NATIONAL
WEATHER SERVICE. USE DATA WITH CAUTION...ESPECIALLY
DEWPOINT OBSERVATIONS.

SCZ027-030-031-034>040-042>050-180500-
...SOUTHEAST SOUTH CAROLINA...

CITY           SKY/WX    TMP DP  RH WIND       PRES   REMARKS
N CHARLESTON   CLOUDY    68  66  93 CALM      30.00F
WATERFRONT PRK   N/A     68 N/A N/A N5          N/A
MOUNT PLEASANT FAIR      68  66  94 CALM      29.99F FOG
PINOPOLIS      NOT AVBL
MONCKS CORNER  CLOUDY    68  66  94 CALM      30.00F FOG
SUMMERVILLE    CLOUDY    66  66 100 CALM      30.01S
BEAUFORT MCAS  CLOUDY    68  66  93 CALM      30.00F
BEAUFORT ARPT  MOCLDY    68  68 100 CALM      30.00S FOG
HILTON HEAD IS CLOUDY    70  68  94 CALM      30.01F
WALTERBORO     RAIN      64  64 100 CALM      30.02S
ALLENDALE      MOCLDY    68  68 100 CALM      30.01S FOG

...SOUTHERN MIDLANDS AND PEE DEE...

CITY           SKY/WX    TMP DP  RH WIND       PRES   REMARKS
GEORGETOWN     NOT AVBL
KINGSTREE      NOT AVBL
ORANGEBURG     CLOUDY    67  65  93 CALM      30.02F FOG
BARNWELL       CLOUDY    66  66 100 CALM      30.03S FOG
AIKEN          RAIN      61  59  94 CALM      30.07R
MANNING        FAIR      64  63  94 CALM      30.02S FOG
COLUMBIA       CLOUDY    67  64  90 CALM      30.02F FOG
SUMTER         CLOUDY    66  64  94 N1        30.00F
FLORENCE       CLOUDY    67  65  93 CALM      30.01F
MYRTLE BEACH   CLOUDY    68  64  88 CALM      30.02F
N MYRTLE BEACH CLOUDY    67  66  97 CALM      30.00F

$$

GAZ063-065-086>088-099>101-113>116-118-119-134>141-150-180500-
...SOUTHEAST GEORGIA...

CITY           SKY/WX    TMP DP  RH WIND       PRES   REMARKS
SAVANNAH ARPT  CLOUDY    68  66  93 W3        30.01S
HUNTER AAF     CLOUDY    68  68 100 SW2       29.99S
FORT STEWART   CLOUDY    67  66  95 CALM      29.99S
STATESBORO     LGT RAIN  66  66 100 CALM      30.02S
SYLVANIA       CLOUDY    66  66 100 CALM      30.03R FOG
CLAXTON        DRIZZLE   64  64 100 CALM      30.02S

...CSRA...CENTRAL AND FAR SOUTHEAST GEORGIA...

CITY           SKY/WX    TMP DP  RH WIND       PRES   REMARKS
THOMSON        CLOUDY    66  66 100 CALM      30.08F
AUGUSTA-BUSH   RAIN      65  64  97 NW6       30.03R FOG
AUGUSTA-DANIEL HVY RAIN  66  64  93 CALM      30.04S FOG
SWAINSBORO     RAIN      66  66 100 CALM      30.03S
VIDALIA        HVY RAIN  66  66 100 E3        30.02S
EASTMAN        RAIN      66  66 100 CALM      30.04F
HAZLEHURST     RAIN      69  69 100 CALM      30.00F
ALMA           CLOUDY    68  67  96 E3        30.00F
WAYCROSS       CLOUDY    72  70  93 CALM      30.00F
JESUP          MOCLDY    70  70 100 CALM      30.01S
BAXLEY         CLOUDY    70  68  94 E3        30.01S
BRUNSWICK      CLOUDY    68  64  88 SW3       30.01R
SAINT SIMONS   CLOUDY    67  66  97 CALM      30.00F

$$

SCZ027-028-034-036>038-045-046-048>050-GAZ119-141-180500-
...LAKE AND SUPPLEMENTAL COASTAL OBSERVATIONS...

STATION/POSITION TIME  TEMP    WIND        PRES    WAVE   SWELL
                       AIR SEA DIR/SP/G            HT/PER HT/PER/DIR
                 (UTC) (F)     (DEG/KT/KT) (MB)    (FT/S) (FT/S/D)
UPR LAKE MARION  NOT AVBL
WINYAH BAY       0300   68     350/  2     1015.0S
LAKE MURRAY      0300   65     280/  3/  3 1016.6R
ACE BASIN NERRS  NOT AVBL
FORT PULASKI     0300           80/  2/  2   N/A
SAPELO ISLAND    0300   67        CALM     1016.0S

$$

ANZ835-935-AMZ111-154-330-350-352-354-370-450-454-472-180500-
...C-MAN AND BUOY OBSERVATIONS...

STATION/POSITION TIME  TEMP    WIND        PRES    WAVE   SWELL
                       AIR SEA DIR/SP/G            HT/PER HT/PER/DIR
                 (UTC) (F)     (DEG/KT/KT) (MB)    (FT/S) (FT/S/D)
BUOY 41004       0350   71 74   10/  8/ 10 1014.9F   4/ 8   3/ 8
BUOY 41008       0350   66 67  100/  2/  2 1015.9F   2/11   2/ 60/11
FOLLY BEACH CMAN 0400   67      30/  3/  4 1015.5F
CAPERS NEARSHORE NOT AVBL
FRIPP NEARSHORE  0300   68      CALM  /  2 1016.2F


STATION/POSITION TIME  TEMP    WIND        PRES    WAVE   SWELL
                       AIR SEA DIR/SP/G            HT/PER HT/PER/DIR
                 (UTC) (F)     (DEG/KT/KT) (MB)    (FT/S) (FT/S/D)
5E ST. MARYS GA  0321      69                N/A     2/11   2/ 80/11
FRYING PAN BUOY  0350   74 74   90/  8/ 10 1016.0S   5/ 7   5/110/ 7
BUOY 41025       0350   72 74  190/  6/  8 1016.3F   5/ 8   5/ 90/ 8
CAPE LOOKOUT NC  0400   67      CALM  /  1 1015.8F
BUOY 41002       0350   72 72  180/  2/  4 1015.6F   6/10   5/ 50/10
BUOY 41010       0320   77 78  160/  6/  8 1016.7F
ST AUGUSTINE FL  0400   68 69  250/  2/  3 1017.2F


$$


USA.gov is the U.S. government's official web portal to all federal, state and local government web resources and services.